Year,Month,Day,Hour,Minute,Value (Times are PST for windgust in km/hr)
2006,02,04,00,00,14.50
2006,02,04,00,01,9.60
2006,02,04,00,02,9.60
2006,02,04,00,03,8.10
2006,02,04,00,04,8.10
2006,02,04,00,05,12.90
2006,02,04,00,06,9.60
2006,02,04,00,07,11.30
2006,02,04,00,08,9.60
2006,02,04,00,09,8.10
2006,02,04,00,10,8.10
2006,02,04,00,11,12.90
2006,02,04,00,12,8.10
2006,02,04,00,13,9.60
2006,02,04,00,14,16.10
2006,02,04,00,15,11.30
2006,02,04,00,16,8.10
2006,02,04,00,17,11.30
2006,02,04,00,18,9.60
2006,02,04,00,19,11.30
2006,02,04,00,20,8.10
2006,02,04,00,21,14.50
2006,02,04,00,22,9.60
2006,02,04,00,23,4.80
2006,02,04,00,24,4.80
2006,02,04,00,25,6.40
2006,02,04,00,26,3.20
2006,02,04,00,27,9.60
2006,02,04,00,28,9.60
2006,02,04,00,29,4.80
2006,02,04,00,30,3.20
2006,02,04,00,31,3.20
2006,02,04,00,32,3.20
2006,02,04,00,33,6.40
2006,02,04,00,34,6.40
2006,02,04,00,35,1.60
2006,02,04,00,36,3.20
2006,02,04,00,37,3.20
2006,02,04,00,38,1.60
2006,02,04,00,39,1.60
2006,02,04,00,40,8.10
2006,02,04,00,41,1.60
2006,02,04,00,42,6.40
2006,02,04,00,43,3.20
2006,02,04,00,44,4.80
2006,02,04,00,45,3.20
2006,02,04,00,46,4.80
2006,02,04,00,47,6.40
2006,02,04,00,48,1.60
2006,02,04,00,49,6.40
2006,02,04,00,50,8.10
2006,02,04,00,51,3.20
2006,02,04,00,52,4.80
2006,02,04,00,53,4.80
2006,02,04,00,54,4.80
2006,02,04,00,55,3.20
2006,02,04,00,56,3.20
2006,02,04,00,57,4.80
2006,02,04,00,58,3.20
2006,02,04,00,59,1.60
2006,02,04,01,00,1.60
2006,02,04,01,01,1.60
2006,02,04,01,02,3.20
2006,02,04,01,03,3.20
2006,02,04,01,04,1.60
2006,02,04,01,05,1.60
2006,02,04,01,06,1.60
2006,02,04,01,07,1.60
2006,02,04,01,08,0.00
2006,02,04,01,09,3.20
2006,02,04,01,10,3.20
2006,02,04,01,11,0.00
2006,02,04,01,12,1.60
2006,02,04,01,13,1.60
2006,02,04,01,14,3.20
2006,02,04,01,15,1.60
2006,02,04,01,16,1.60
2006,02,04,01,17,3.20
2006,02,04,01,18,3.20
2006,02,04,01,19,1.60
2006,02,04,01,20,1.60
2006,02,04,01,21,3.20
2006,02,04,01,22,1.60
2006,02,04,01,23,1.60
2006,02,04,01,24,1.60
2006,02,04,01,25,3.20
2006,02,04,01,26,3.20
2006,02,04,01,27,1.60
2006,02,04,01,28,0.00
2006,02,04,01,29,0.00
2006,02,04,01,30,0.00
2006,02,04,01,31,0.00
2006,02,04,01,32,3.20
2006,02,04,01,33,4.80
2006,02,04,01,34,4.80
2006,02,04,01,35,3.20
2006,02,04,01,36,3.20
2006,02,04,01,37,4.80
2006,02,04,01,38,6.40
2006,02,04,01,39,3.20
2006,02,04,01,40,4.80
2006,02,04,01,41,3.20
2006,02,04,01,42,4.80
2006,02,04,01,43,6.40
2006,02,04,01,44,4.80
2006,02,04,01,45,4.80
2006,02,04,01,46,6.40
2006,02,04,01,47,4.80
2006,02,04,01,48,6.40
2006,02,04,01,49,8.10
2006,02,04,01,50,8.10
2006,02,04,01,51,6.40
2006,02,04,01,52,8.10
2006,02,04,01,53,4.80
2006,02,04,01,54,8.10
2006,02,04,01,55,8.10
2006,02,04,01,56,4.80
2006,02,04,01,57,3.20
2006,02,04,01,58,1.60
2006,02,04,01,59,6.40
2006,02,04,02,00,4.80
2006,02,04,02,01,3.20
2006,02,04,02,02,1.60
2006,02,04,02,03,1.60
2006,02,04,02,04,1.60
2006,02,04,02,05,6.40
2006,02,04,02,06,6.40
2006,02,04,02,07,8.10
2006,02,04,02,08,8.10
2006,02,04,02,09,11.30
2006,02,04,02,10,3.20
2006,02,04,02,11,6.40
2006,02,04,02,12,8.10
2006,02,04,02,13,3.20
2006,02,04,02,14,0.00
2006,02,04,02,15,1.60
2006,02,04,02,16,3.20
2006,02,04,02,17,3.20
2006,02,04,02,18,1.60
2006,02,04,02,19,0.00
2006,02,04,02,20,1.60
2006,02,04,02,21,3.20
2006,02,04,02,22,4.80
2006,02,04,02,23,3.20
2006,02,04,02,24,1.60
2006,02,04,02,25,3.20
2006,02,04,02,26,1.60
2006,02,04,02,27,0.00
2006,02,04,02,28,0.00
2006,02,04,02,29,1.60
2006,02,04,02,30,1.60
2006,02,04,02,31,0.00
2006,02,04,02,32,0.00
2006,02,04,02,33,0.00
2006,02,04,02,34,0.00
2006,02,04,02,35,0.00
2006,02,04,02,36,0.00
2006,02,04,02,37,0.00
2006,02,04,02,38,1.60
2006,02,04,02,39,0.00
2006,02,04,02,40,1.60
2006,02,04,02,41,3.20
2006,02,04,02,42,1.60
2006,02,04,02,43,1.60
2006,02,04,02,44,4.80
2006,02,04,02,45,11.30
2006,02,04,02,46,9.60
2006,02,04,02,47,6.40
2006,02,04,02,48,11.30
2006,02,04,02,49,11.30
2006,02,04,02,50,9.60
2006,02,04,02,51,4.80
2006,02,04,02,52,3.20
2006,02,04,02,53,9.60
2006,02,04,02,54,11.30
2006,02,04,02,55,11.30
2006,02,04,02,56,11.30
2006,02,04,02,57,9.60
2006,02,04,02,58,6.40
2006,02,04,02,59,11.30
2006,02,04,03,00,9.60
2006,02,04,03,01,14.50
2006,02,04,03,02,6.40
2006,02,04,03,03,9.60
2006,02,04,03,04,6.40
2006,02,04,03,05,9.60
2006,02,04,03,06,8.10
2006,02,04,03,07,6.40
2006,02,04,03,08,17.70
2006,02,04,03,09,17.70
2006,02,04,03,10,16.10
2006,02,04,03,11,19.30
2006,02,04,03,12,16.10
2006,02,04,03,13,16.10
2006,02,04,03,14,12.90
2006,02,04,03,15,16.10
2006,02,04,03,16,8.10
2006,02,04,03,17,11.30
2006,02,04,03,18,9.60
2006,02,04,03,19,11.30
2006,02,04,03,20,16.10
2006,02,04,03,21,14.50
2006,02,04,03,22,16.10
2006,02,04,03,23,3.20
2006,02,04,03,24,16.10
2006,02,04,03,25,14.50
2006,02,04,03,26,9.60
2006,02,04,03,27,11.30
2006,02,04,03,28,8.10
2006,02,04,03,29,6.40
2006,02,04,03,30,14.50
2006,02,04,03,31,14.50
2006,02,04,03,32,11.30
2006,02,04,03,33,9.60
2006,02,04,03,34,4.80
2006,02,04,03,35,4.80
2006,02,04,03,36,6.40
2006,02,04,03,37,6.40
2006,02,04,03,38,4.80
2006,02,04,03,39,4.80
2006,02,04,03,40,8.10
2006,02,04,03,41,6.40
2006,02,04,03,42,4.80
2006,02,04,03,43,1.60
2006,02,04,03,44,3.20
2006,02,04,03,45,0.00
2006,02,04,03,46,6.40
2006,02,04,03,47,3.20
2006,02,04,03,48,8.10
2006,02,04,03,49,8.10
2006,02,04,03,50,4.80
2006,02,04,03,51,4.80
2006,02,04,03,52,4.80
2006,02,04,03,53,4.80
2006,02,04,03,54,4.80
2006,02,04,03,55,3.20
2006,02,04,03,56,3.20
2006,02,04,03,57,6.40
2006,02,04,03,58,4.80
2006,02,04,03,59,17.70
2006,02,04,04,00,9.60
2006,02,04,04,01,19.30
2006,02,04,04,02,8.10
2006,02,04,04,03,4.80
2006,02,04,04,04,6.40
2006,02,04,04,05,6.40
2006,02,04,04,06,9.60
2006,02,04,04,07,8.10
2006,02,04,04,08,6.40
2006,02,04,04,09,9.60
2006,02,04,04,10,8.10
2006,02,04,04,11,8.10
2006,02,04,04,12,6.40
2006,02,04,04,13,9.60
2006,02,04,04,14,9.60
2006,02,04,04,15,8.10
2006,02,04,04,16,4.80
2006,02,04,04,17,4.80
2006,02,04,04,18,6.40
2006,02,04,04,19,4.80
2006,02,04,04,20,4.80
2006,02,04,04,21,1.60
2006,02,04,04,22,4.80
2006,02,04,04,23,3.20
2006,02,04,04,24,3.20
2006,02,04,04,25,4.80
2006,02,04,04,26,3.20
2006,02,04,04,27,1.60
2006,02,04,04,28,4.80
2006,02,04,04,29,4.80
2006,02,04,04,30,11.30
2006,02,04,04,31,4.80
2006,02,04,04,32,9.60
2006,02,04,04,33,8.10
2006,02,04,04,34,14.50
2006,02,04,04,35,4.80
2006,02,04,04,36,16.10
2006,02,04,04,37,9.60
2006,02,04,04,38,6.40
2006,02,04,04,39,9.60
2006,02,04,04,40,8.10
2006,02,04,04,41,11.30
2006,02,04,04,42,4.80
2006,02,04,04,43,11.30
2006,02,04,04,44,11.30
2006,02,04,04,45,8.10
2006,02,04,04,46,9.60
2006,02,04,04,47,8.10
2006,02,04,04,48,8.10
2006,02,04,04,49,8.10
2006,02,04,04,50,14.50
2006,02,04,04,51,6.40
2006,02,04,04,52,8.10
2006,02,04,04,53,8.10
2006,02,04,04,54,8.10
2006,02,04,04,55,6.40
2006,02,04,04,56,9.60
2006,02,04,04,57,6.40
2006,02,04,04,58,9.60
2006,02,04,04,59,8.10
2006,02,04,05,00,8.10
2006,02,04,05,01,3.20
2006,02,04,05,02,6.40
2006,02,04,05,03,6.40
2006,02,04,05,04,1.60
2006,02,04,05,05,8.10
2006,02,04,05,06,6.40
2006,02,04,05,07,8.10
2006,02,04,05,08,4.80
2006,02,04,05,09,4.80
2006,02,04,05,10,4.80
2006,02,04,05,11,4.80
2006,02,04,05,12,6.40
2006,02,04,05,13,11.30
2006,02,04,05,14,16.10
2006,02,04,05,15,4.80
2006,02,04,05,16,6.40
2006,02,04,05,17,4.80
2006,02,04,05,18,4.80
2006,02,04,05,19,9.60
2006,02,04,05,20,8.10
2006,02,04,05,21,16.10
2006,02,04,05,22,9.60
2006,02,04,05,23,4.80
2006,02,04,05,24,6.40
2006,02,04,05,25,11.30
2006,02,04,05,26,6.40
2006,02,04,05,27,6.40
2006,02,04,05,28,9.60
2006,02,04,05,29,11.30
2006,02,04,05,30,8.10
2006,02,04,05,31,6.40
2006,02,04,05,32,8.10
2006,02,04,05,33,4.80
2006,02,04,05,34,6.40
2006,02,04,05,35,9.60
2006,02,04,05,36,8.10
2006,02,04,05,37,8.10
2006,02,04,05,38,9.60
2006,02,04,05,39,9.60
2006,02,04,05,40,8.10
2006,02,04,05,41,6.40
2006,02,04,05,42,9.60
2006,02,04,05,43,9.60
2006,02,04,05,44,6.40
2006,02,04,05,45,3.20
2006,02,04,05,46,6.40
2006,02,04,05,47,8.10
2006,02,04,05,48,6.40
2006,02,04,05,49,1.60
2006,02,04,05,50,4.80
2006,02,04,05,51,8.10
2006,02,04,05,52,4.80
2006,02,04,05,53,8.10
2006,02,04,05,54,1.60
2006,02,04,05,55,9.60
2006,02,04,05,56,6.40
2006,02,04,05,57,6.40
2006,02,04,05,58,6.40
2006,02,04,05,59,6.40
2006,02,04,06,00,14.50
2006,02,04,06,01,9.60
2006,02,04,06,02,6.40
2006,02,04,06,03,9.60
2006,02,04,06,04,8.10
2006,02,04,06,05,6.40
2006,02,04,06,06,6.40
2006,02,04,06,07,9.60
2006,02,04,06,08,6.40
2006,02,04,06,09,4.80
2006,02,04,06,10,3.20
2006,02,04,06,11,3.20
2006,02,04,06,12,4.80
2006,02,04,06,13,3.20
2006,02,04,06,14,6.40
2006,02,04,06,15,6.40
2006,02,04,06,16,3.20
2006,02,04,06,17,4.80
2006,02,04,06,18,4.80
2006,02,04,06,19,8.10
2006,02,04,06,20,6.40
2006,02,04,06,21,6.40
2006,02,04,06,22,4.80
2006,02,04,06,23,11.30
2006,02,04,06,24,8.10
2006,02,04,06,25,9.60
2006,02,04,06,26,4.80
2006,02,04,06,27,11.30
2006,02,04,06,28,8.10
2006,02,04,06,29,8.10
2006,02,04,06,30,8.10
2006,02,04,06,31,9.60
2006,02,04,06,32,9.60
2006,02,04,06,33,8.10
2006,02,04,06,34,6.40
2006,02,04,06,35,4.80
2006,02,04,06,36,6.40
2006,02,04,06,37,6.40
2006,02,04,06,38,3.20
2006,02,04,06,39,3.20
2006,02,04,06,40,1.60
2006,02,04,06,41,9.60
2006,02,04,06,42,6.40
2006,02,04,06,43,4.80
2006,02,04,06,44,9.60
2006,02,04,06,45,11.30
2006,02,04,06,46,8.10
2006,02,04,06,47,11.30
2006,02,04,06,48,11.30
2006,02,04,06,49,8.10
2006,02,04,06,50,8.10
2006,02,04,06,51,11.30
2006,02,04,06,52,11.30
2006,02,04,06,53,14.50
2006,02,04,06,54,8.10
2006,02,04,06,55,8.10
2006,02,04,06,56,8.10
2006,02,04,06,57,9.60
2006,02,04,06,58,6.40
2006,02,04,06,59,6.40
2006,02,04,07,00,9.60
2006,02,04,07,01,6.40
2006,02,04,07,02,8.10
2006,02,04,07,03,14.50
2006,02,04,07,04,6.40
2006,02,04,07,05,19.30
2006,02,04,07,06,6.40
2006,02,04,07,07,16.10
2006,02,04,07,08,9.60
2006,02,04,07,09,6.40
2006,02,04,07,10,11.30
2006,02,04,07,11,8.10
2006,02,04,07,12,6.40
2006,02,04,07,13,19.30
2006,02,04,07,14,17.70
2006,02,04,07,15,11.30
2006,02,04,07,16,14.50
2006,02,04,07,17,8.10
2006,02,04,07,18,19.30
2006,02,04,07,19,12.90
2006,02,04,07,20,11.30
2006,02,04,07,21,16.10
2006,02,04,07,22,9.60
2006,02,04,07,23,11.30
2006,02,04,07,24,16.10
2006,02,04,07,25,9.60
2006,02,04,07,26,8.10
2006,02,04,07,27,14.50
2006,02,04,07,28,14.50
2006,02,04,07,29,9.60
2006,02,04,07,30,8.10
2006,02,04,07,31,17.70
2006,02,04,07,32,9.60
2006,02,04,07,33,9.60
2006,02,04,07,34,9.60
2006,02,04,07,35,9.60
2006,02,04,07,36,19.30
2006,02,04,07,37,11.30
2006,02,04,07,38,11.30
2006,02,04,07,39,9.60
2006,02,04,07,40,11.30
2006,02,04,07,41,9.60
2006,02,04,07,42,8.10
2006,02,04,07,43,9.60
2006,02,04,07,44,16.10
2006,02,04,07,45,14.50
2006,02,04,07,46,11.30
2006,02,04,07,47,14.50
2006,02,04,07,48,14.50
2006,02,04,07,49,9.60
2006,02,04,07,50,9.60
2006,02,04,07,51,16.10
2006,02,04,07,52,14.50
2006,02,04,07,53,11.30
2006,02,04,07,54,9.60
2006,02,04,07,55,8.10
2006,02,04,07,56,6.40
2006,02,04,07,57,6.40
2006,02,04,07,58,9.60
2006,02,04,07,59,12.90
2006,02,04,08,00,9.60
2006,02,04,08,01,14.50
2006,02,04,08,02,12.90
2006,02,04,08,03,14.50
2006,02,04,08,04,16.10
2006,02,04,08,05,11.30
2006,02,04,08,06,8.10
2006,02,04,08,07,14.50
2006,02,04,08,08,8.10
2006,02,04,08,09,6.40
2006,02,04,08,10,9.60
2006,02,04,08,11,11.30
2006,02,04,08,12,11.30
2006,02,04,08,13,16.10
2006,02,04,08,14,8.10
2006,02,04,08,15,8.10
2006,02,04,08,16,11.30
2006,02,04,08,17,9.60
2006,02,04,08,18,6.40
2006,02,04,08,19,6.40
2006,02,04,08,20,8.10
2006,02,04,08,21,8.10
2006,02,04,08,22,9.60
2006,02,04,08,23,11.30
2006,02,04,08,24,8.10
2006,02,04,08,25,9.60
2006,02,04,08,26,6.40
2006,02,04,08,27,9.60
2006,02,04,08,28,8.10
2006,02,04,08,29,4.80
2006,02,04,08,30,6.40
2006,02,04,08,31,16.10
2006,02,04,08,32,14.50
2006,02,04,08,33,14.50
2006,02,04,08,34,14.50
2006,02,04,08,35,11.30
2006,02,04,08,36,11.30
2006,02,04,08,37,16.10
2006,02,04,08,38,4.80
2006,02,04,08,39,6.40
2006,02,04,08,40,8.10
2006,02,04,08,41,11.30
2006,02,04,08,42,22.50
2006,02,04,08,43,20.90
2006,02,04,08,44,20.90
2006,02,04,08,45,17.70
2006,02,04,08,46,20.90
2006,02,04,08,47,17.70
2006,02,04,08,48,17.70
2006,02,04,08,49,17.70
2006,02,04,08,50,16.10
2006,02,04,08,51,20.90
2006,02,04,08,52,20.90
2006,02,04,08,53,19.30
2006,02,04,08,54,20.90
2006,02,04,08,55,14.50
2006,02,04,08,56,6.40
2006,02,04,08,57,14.50
2006,02,04,08,58,11.30
2006,02,04,08,59,9.60
2006,02,04,09,00,11.30
2006,02,04,09,01,11.30
2006,02,04,09,02,9.60
2006,02,04,09,03,8.10
2006,02,04,09,04,9.60
2006,02,04,09,05,8.10
2006,02,04,09,06,8.10
2006,02,04,09,07,9.60
2006,02,04,09,08,17.70
2006,02,04,09,09,20.90
2006,02,04,09,10,30.60
2006,02,04,09,11,9.60
2006,02,04,09,12,17.70
2006,02,04,09,13,20.90
2006,02,04,09,14,16.10
2006,02,04,09,15,11.30
2006,02,04,09,16,9.60
2006,02,04,09,17,16.10
2006,02,04,09,18,11.30
2006,02,04,09,19,6.40
2006,02,04,09,20,9.60
2006,02,04,09,21,20.90
2006,02,04,09,22,27.40
2006,02,04,09,23,14.50
2006,02,04,09,24,19.30
2006,02,04,09,25,8.10
2006,02,04,09,26,9.60
2006,02,04,09,27,22.50
2006,02,04,09,28,25.70
2006,02,04,09,29,6.40
2006,02,04,09,30,8.10
2006,02,04,09,31,8.10
2006,02,04,09,32,19.30
2006,02,04,09,33,14.50
2006,02,04,09,34,33.80
2006,02,04,09,35,17.70
2006,02,04,09,36,14.50
2006,02,04,09,37,12.90
2006,02,04,09,38,14.50
2006,02,04,09,39,37.00
2006,02,04,09,40,19.30
2006,02,04,09,41,16.10
2006,02,04,09,42,29.00
2006,02,04,09,43,24.20
2006,02,04,09,44,35.40
2006,02,04,09,45,37.00
2006,02,04,09,46,17.70
2006,02,04,09,47,24.20
2006,02,04,09,48,29.00
2006,02,04,09,49,16.10
2006,02,04,09,50,22.50
2006,02,04,09,51,29.00
2006,02,04,09,52,19.30
2006,02,04,09,53,30.60
2006,02,04,09,54,20.90
2006,02,04,09,55,32.20
2006,02,04,09,56,22.50
2006,02,04,09,57,14.50
2006,02,04,09,58,19.30
2006,02,04,09,59,16.10
2006,02,04,10,00,17.70
2006,02,04,10,01,11.30
2006,02,04,10,02,24.20
2006,02,04,10,03,30.60
2006,02,04,10,04,17.70
2006,02,04,10,05,12.90
2006,02,04,10,06,25.70
2006,02,04,10,07,24.20
2006,02,04,10,08,9.60
2006,02,04,10,09,22.50
2006,02,04,10,10,16.10
2006,02,04,10,11,29.00
2006,02,04,10,12,16.10
2006,02,04,10,13,14.50
2006,02,04,10,14,37.00
2006,02,04,10,15,38.60
2006,02,04,10,16,38.60
2006,02,04,10,17,40.20
2006,02,04,10,18,29.00
2006,02,04,10,19,46.70
2006,02,04,10,20,35.40
2006,02,04,10,21,38.60
2006,02,04,10,22,22.50
2006,02,04,10,23,30.60
2006,02,04,10,24,30.60
2006,02,04,10,25,32.20
2006,02,04,10,26,40.20
2006,02,04,10,27,37.00
2006,02,04,10,28,37.00
2006,02,04,10,29,32.20
2006,02,04,10,30,37.00
2006,02,04,10,31,20.90
2006,02,04,10,32,20.90
2006,02,04,10,33,16.10
2006,02,04,10,34,30.60
2006,02,04,10,35,27.40
2006,02,04,10,36,35.40
2006,02,04,10,37,25.70
2006,02,04,10,38,38.60
2006,02,04,10,39,14.50
2006,02,04,10,40,29.00
2006,02,04,10,41,35.40
2006,02,04,10,42,27.40
2006,02,04,10,43,40.20
2006,02,04,10,44,43.50
2006,02,04,10,45,24.20
2006,02,04,10,46,11.30
2006,02,04,10,47,30.60
2006,02,04,10,48,16.10
2006,02,04,10,49,16.10
2006,02,04,10,50,45.10
2006,02,04,10,51,24.20
2006,02,04,10,52,11.30
2006,02,04,10,53,14.50
2006,02,04,10,54,38.60
2006,02,04,10,55,35.40
2006,02,04,10,56,35.40
2006,02,04,10,57,17.70
2006,02,04,10,58,14.50
2006,02,04,10,59,17.70
2006,02,04,11,00,25.70
2006,02,04,11,01,19.30
2006,02,04,11,02,19.30
2006,02,04,11,03,27.40
2006,02,04,11,04,27.40
2006,02,04,11,05,45.10
2006,02,04,11,06,14.50
2006,02,04,11,07,29.00
2006,02,04,11,08,25.70
2006,02,04,11,09,25.70
2006,02,04,11,10,29.00
2006,02,04,11,11,20.90
2006,02,04,11,12,22.50
2006,02,04,11,13,9.60
2006,02,04,11,14,19.30
2006,02,04,11,15,20.90
2006,02,04,11,16,20.90
2006,02,04,11,17,22.50
2006,02,04,11,18,25.70
2006,02,04,11,19,17.70
2006,02,04,11,20,22.50
2006,02,04,11,21,22.50
2006,02,04,11,22,20.90
2006,02,04,11,23,25.70
2006,02,04,11,24,11.30
2006,02,04,11,25,24.20
2006,02,04,11,26,17.70
2006,02,04,11,27,17.70
2006,02,04,11,28,29.00
2006,02,04,11,29,41.80
2006,02,04,11,30,32.20
2006,02,04,11,31,24.20
2006,02,04,11,32,17.70
2006,02,04,11,33,30.60
2006,02,04,11,34,30.60
2006,02,04,11,35,32.20
2006,02,04,11,36,48.30
2006,02,04,11,37,30.60
2006,02,04,11,38,22.50
2006,02,04,11,39,16.10
2006,02,04,11,40,30.60
2006,02,04,11,41,35.40
2006,02,04,11,42,20.90
2006,02,04,11,43,40.20
2006,02,04,11,44,22.50
2006,02,04,11,45,22.50
2006,02,04,11,46,22.50
2006,02,04,11,47,35.40
2006,02,04,11,48,32.20
2006,02,04,11,49,35.40
2006,02,04,11,50,19.30
2006,02,04,11,51,20.90
2006,02,04,11,52,22.50
2006,02,04,11,53,22.50
2006,02,04,11,54,37.00
2006,02,04,11,55,48.30
2006,02,04,11,56,29.00
2006,02,04,11,57,24.20
2006,02,04,11,58,24.20
2006,02,04,11,59,20.90
2006,02,04,12,00,25.70
2006,02,04,12,01,37.00
2006,02,04,12,02,38.60
2006,02,04,12,03,22.50
2006,02,04,12,04,45.10
2006,02,04,12,05,33.80
2006,02,04,12,06,32.20
2006,02,04,12,07,38.60
2006,02,04,12,08,37.00
2006,02,04,12,09,24.20
2006,02,04,12,10,19.30
2006,02,04,12,11,14.50
2006,02,04,12,12,24.20
2006,02,04,14,16,22.50
2006,02,04,14,17,22.50
2006,02,04,14,18,30.60
2006,02,04,14,19,20.90
2006,02,04,14,20,14.50
2006,02,04,14,21,37.00
2006,02,04,14,22,40.20
2006,02,04,14,23,37.00
2006,02,04,14,24,41.80
2006,02,04,14,25,33.80
2006,02,04,14,26,22.50
2006,02,04,14,27,51.50
2006,02,04,14,28,20.90
2006,02,04,14,29,30.60
2006,02,04,14,30,29.00
2006,02,04,14,31,25.70
2006,02,04,14,32,41.80
2006,02,04,14,33,29.00
2006,02,04,14,34,30.60
2006,02,04,14,35,25.70
2006,02,04,14,36,25.70
2006,02,04,14,37,27.40
2006,02,04,14,38,29.00
2006,02,04,14,39,19.30
2006,02,04,14,40,33.80
2006,02,04,14,41,27.40
2006,02,04,14,42,19.30
2006,02,04,14,43,32.20
2006,02,04,14,44,29.00
2006,02,04,14,45,30.60
2006,02,04,14,46,49.90
2006,02,04,14,47,38.60
2006,02,04,14,48,33.80
2006,02,04,14,49,43.50
2006,02,04,14,50,32.20
2006,02,04,14,51,14.50
2006,02,04,14,52,38.60
2006,02,04,14,53,30.60
2006,02,04,14,54,19.30
2006,02,04,14,55,16.10
2006,02,04,14,56,35.40
2006,02,04,14,57,27.40
2006,02,04,14,58,20.90
2006,02,04,14,59,19.30
2006,02,04,15,00,24.20
2006,02,04,15,01,35.40
2006,02,04,15,02,41.80
2006,02,04,15,03,25.70
2006,02,04,15,04,20.90
2006,02,04,15,05,29.00
2006,02,04,15,06,37.00
2006,02,04,15,07,25.70
2006,02,04,15,08,20.90
2006,02,04,15,09,29.00
2006,02,04,15,10,30.60
2006,02,04,15,11,33.80
2006,02,04,15,12,33.80
2006,02,04,15,13,35.40
2006,02,04,15,14,43.50
2006,02,04,15,15,45.10
2006,02,04,15,16,16.10
2006,02,04,15,17,37.00
2006,02,04,15,18,20.90
2006,02,04,15,19,33.80
2006,02,04,15,20,25.70
2006,02,04,15,21,33.80
2006,02,04,15,22,45.10
2006,02,04,15,23,37.00
2006,02,04,15,24,49.90
2006,02,04,15,25,30.60
2006,02,04,15,26,9.60
2006,02,04,15,27,40.20
2006,02,04,15,28,20.90
2006,02,04,15,29,46.70
2006,02,04,15,30,38.60
2006,02,04,15,31,33.80
2006,02,04,15,32,27.40
2006,02,04,15,33,38.60
2006,02,04,15,34,27.40
2006,02,04,15,35,22.50
2006,02,04,15,36,53.10
2006,02,04,15,37,33.80
2006,02,04,15,38,40.20
2006,02,04,15,39,27.40
2006,02,04,15,40,35.40
2006,02,04,15,41,37.00
2006,02,04,15,42,24.20
2006,02,04,15,43,22.50
2006,02,04,15,44,35.40
2006,02,04,15,45,48.30
2006,02,04,15,46,24.20
2006,02,04,15,47,29.00
2006,02,04,15,48,30.60
2006,02,04,15,49,20.90
2006,02,04,15,50,17.70
2006,02,04,15,51,16.10
2006,02,04,15,52,43.50
2006,02,04,15,53,30.60
2006,02,04,15,54,27.40
2006,02,04,15,55,27.40
2006,02,04,15,56,29.00
2006,02,04,15,57,20.90
2006,02,04,15,58,33.80
2006,02,04,15,59,35.40
2006,02,04,16,00,20.90
2006,02,04,16,01,54.70
2006,02,04,16,02,30.60
2006,02,04,16,03,35.40
2006,02,04,16,04,30.60
2006,02,04,16,05,22.50
2006,02,04,16,06,32.20
2006,02,04,16,07,20.90
2006,02,04,16,08,24.20
2006,02,04,16,09,20.90
2006,02,04,16,10,17.70
2006,02,04,16,11,20.90
2006,02,04,16,12,25.70
2006,02,04,16,13,30.60
2006,02,04,16,14,38.60
2006,02,04,16,15,32.20
2006,02,04,16,16,24.20
2006,02,04,16,17,19.30
2006,02,04,16,18,14.50
2006,02,04,16,19,20.90
2006,02,04,16,20,25.70
2006,02,04,16,21,49.90
2006,02,04,16,22,24.20
2006,02,04,16,23,25.70
2006,02,04,16,24,41.80
2006,02,04,16,25,25.70
2006,02,04,16,26,35.40
2006,02,04,16,27,29.00
2006,02,04,16,28,16.10
2006,02,04,16,29,30.60
2006,02,04,16,30,27.40
2006,02,04,16,31,43.50
2006,02,04,16,32,22.50
2006,02,04,16,33,40.20
2006,02,04,16,34,35.40
2006,02,04,16,35,35.40
2006,02,04,16,36,22.50
2006,02,04,16,37,11.30
2006,02,04,16,38,25.70
2006,02,04,16,39,29.00
2006,02,04,16,40,19.30
2006,02,04,16,41,8.10
2006,02,04,16,42,14.50
2006,02,04,16,43,24.20
2006,02,04,16,44,19.30
2006,02,04,16,45,9.60
2006,02,04,16,46,16.10
2006,02,04,16,47,25.70
2006,02,04,16,48,22.50
2006,02,04,16,49,30.60
2006,02,04,16,50,14.50
2006,02,04,16,51,6.40
2006,02,04,16,52,33.80
2006,02,04,16,53,35.40
2006,02,04,16,54,19.30
2006,02,04,16,55,32.20
2006,02,04,16,56,49.90
2006,02,04,16,57,22.50
2006,02,04,16,58,27.40
2006,02,04,16,59,33.80
2006,02,04,17,00,25.70
2006,02,04,17,01,45.10
2006,02,04,17,02,27.40
2006,02,04,17,03,33.80
2006,02,04,17,04,24.20
2006,02,04,17,05,24.20
2006,02,04,17,06,4.80
2006,02,04,17,07,24.20
2006,02,04,17,08,20.90
2006,02,04,17,09,19.30
2006,02,04,17,10,20.90
2006,02,04,17,11,29.00
2006,02,04,17,12,14.50
2006,02,04,17,13,22.50
2006,02,04,17,14,40.20
2006,02,04,17,15,22.50
2006,02,04,17,16,40.20
2006,02,04,17,17,9.60
2006,02,04,17,18,19.30
2006,02,04,17,19,33.80
2006,02,04,17,20,43.50
2006,02,04,17,21,17.70
2006,02,04,17,22,30.60
2006,02,04,17,23,29.00
2006,02,04,17,24,24.20
2006,02,04,17,25,11.30
2006,02,04,17,26,6.40
2006,02,04,17,27,1.60
2006,02,04,17,28,33.80
2006,02,04,17,29,22.50
2006,02,04,17,30,9.60
2006,02,04,17,31,25.70
2006,02,04,17,32,33.80
2006,02,04,17,33,16.10
2006,02,04,17,34,9.60
2006,02,04,17,35,8.10
2006,02,04,17,36,11.30
2006,02,04,17,37,6.40
2006,02,04,17,38,6.40
2006,02,04,17,39,17.70
2006,02,04,17,40,25.70
2006,02,04,17,41,12.90
2006,02,04,17,42,22.50
2006,02,04,17,43,17.70
2006,02,04,17,44,16.10
2006,02,04,17,45,9.60
2006,02,04,17,46,16.10
2006,02,04,17,47,20.90
2006,02,04,17,48,16.10
2006,02,04,17,49,20.90
2006,02,04,17,50,11.30
2006,02,04,17,51,6.40
2006,02,04,17,52,11.30
2006,02,04,17,53,9.60
2006,02,04,17,54,14.50
2006,02,04,17,55,14.50
2006,02,04,17,56,14.50
2006,02,04,17,57,4.80
2006,02,04,17,58,16.10
2006,02,04,17,59,6.40
2006,02,04,18,00,14.50
2006,02,04,18,01,32.20
2006,02,04,18,02,19.30
2006,02,04,18,03,16.10
2006,02,04,18,04,8.10
2006,02,04,18,05,17.70
2006,02,04,18,06,19.30
2006,02,04,18,07,14.50
2006,02,04,18,08,11.30
2006,02,04,18,09,22.50
2006,02,04,18,10,16.10
2006,02,04,18,11,6.40
2006,02,04,18,12,29.00
2006,02,04,18,13,20.90
2006,02,04,18,14,16.10
2006,02,04,18,15,27.40
2006,02,04,18,16,16.10
2006,02,04,18,17,19.30
2006,02,04,18,18,24.20
2006,02,04,18,19,19.30
2006,02,04,18,20,11.30
2006,02,04,18,21,14.50
2006,02,04,18,22,33.80
2006,02,04,18,23,17.70
2006,02,04,18,24,9.60
2006,02,04,18,25,17.70
2006,02,04,18,26,16.10
2006,02,04,18,27,16.10
2006,02,04,18,28,14.50
2006,02,04,18,29,17.70
2006,02,04,18,30,14.50
2006,02,04,18,31,19.30
2006,02,04,18,32,24.20
2006,02,04,18,33,20.90
2006,02,04,18,34,19.30
2006,02,04,18,35,19.30
2006,02,04,18,36,16.10
2006,02,04,18,37,9.60
2006,02,04,18,38,11.30
2006,02,04,18,39,9.60
2006,02,04,18,40,17.70
2006,02,04,18,41,9.60
2006,02,04,18,42,17.70
2006,02,04,18,43,19.30
2006,02,04,18,44,6.40
2006,02,04,18,45,11.30
2006,02,04,18,46,17.70
2006,02,04,18,47,14.50
2006,02,04,18,48,22.50
2006,02,04,18,49,8.10
2006,02,04,18,50,16.10
2006,02,04,18,51,6.40
2006,02,04,18,52,9.60
2006,02,04,18,53,19.30
2006,02,04,18,54,19.30
2006,02,04,18,55,17.70
2006,02,04,18,56,17.70
2006,02,04,18,57,8.10
2006,02,04,18,58,8.10
2006,02,04,18,59,16.10
2006,02,04,19,00,19.30
2006,02,04,19,01,19.30
2006,02,04,19,02,8.10
2006,02,04,19,03,4.80
2006,02,04,19,04,16.10
2006,02,04,19,05,3.20
2006,02,04,19,06,4.80
2006,02,04,19,07,3.20
2006,02,04,19,08,6.40
2006,02,04,19,09,4.80
2006,02,04,19,10,14.50
2006,02,04,19,11,6.40
2006,02,04,19,12,6.40
2006,02,04,19,13,9.60
2006,02,04,19,14,6.40
2006,02,04,19,15,11.30
2006,02,04,19,16,6.40
2006,02,04,19,17,17.70
2006,02,04,19,18,4.80
2006,02,04,19,19,6.40
2006,02,04,19,20,3.20
2006,02,04,19,21,8.10
2006,02,04,19,22,17.70
2006,02,04,19,23,24.20
2006,02,04,19,24,11.30
2006,02,04,19,25,8.10
2006,02,04,19,26,8.10
2006,02,04,19,27,8.10
2006,02,04,19,28,16.10
2006,02,04,19,29,9.60
2006,02,04,19,30,8.10
2006,02,04,19,31,4.80
2006,02,04,19,32,6.40
2006,02,04,19,33,8.10
2006,02,04,19,34,8.10
2006,02,04,19,35,9.60
2006,02,04,19,36,17.70
2006,02,04,19,37,12.90
2006,02,04,19,38,8.10
2006,02,04,19,39,9.60
2006,02,04,19,40,14.50
2006,02,04,19,41,12.90
2006,02,04,19,42,11.30
2006,02,04,19,43,8.10